This demonstration page uses our WeatherBlox Daily Observations layout. Learn more.

Left ArrowRight Arrow

Hourly Observations for February 22, 2017

Temp ( °F °C ) Dew Point ( °F °C ) Humidity (%) Winds ( mph kmh ) Pressure ( in mb ) Visibility ( mi km ) Precip ( " mm )
12:02 am 00:02 Cloudy with Fog 52 11.1 52 11.1 100 100 N N/A 30.00 1016 0 0 N/A
12:11 am 00:11 Cloudy with Fog 52 11.1 52 11.1 100 100 N N/A 30.00 1016 0 0 N/A
12:53 am 00:53 Cloudy with Fog 52 11.1 52 11.1 100 100 N N/A 29.96 1015 0 0 N/A
12:57 am 00:57 Cloudy with Fog 52 11.1 52 11.1 100 100 N N/A 30.00 1016 1 1 N/A
1:16 am 01:16 Cloudy with Fog 52 11.1 52 11.1 100 100 N N/A 29.97 1015 0 0 N/A
1:53 am 01:53 Cloudy with Light Rain 52 11.1 52 11.1 100 100 N N/A 29.94 1014 1 1 N/A
2:11 am 02:11 Cloudy with Mist and Fog 52 11.1 52 11.1 100 100 N N/A 29.97 1015 2 2 N/A
2:30 am 02:30 Cloudy with Light Rain 53 11.7 53 11.7 100 100 N N/A 29.97 1015 1 2 N/A
2:53 am 02:53 Cloudy with Mist and Fog 54 12.2 54 12.2 100 100 N N/A 29.94 1014 1 2 N/A
3:08 am 03:08 Cloudy with Light Rain 55 12.8 55 12.8 100 100 N N/A 29.94 1014 1 2 N/A
3:33 am 03:33 Cloudy with Light Rain 55 12.8 55 12.8 100 100 N N/A 29.94 1014 1 1 N/A
3:41 am 03:41 Cloudy with Light Rain 55 12.8 55 12.8 100 100 N N/A 29.94 1014 1 1 0.01 0.25
3:53 am 03:53 Cloudy with Light Rain 55 12.8 55 12.8 100 100 E 3 6 29.93 1013 1 1 0.01 0.25
4:28 am 04:28 Cloudy with Light Rain 55 12.8 55 12.8 100 100 N N/A 29.94 1014 1 1 0.01 0.25
4:50 am 04:50 Cloudy with Light Rain 55 13 55 13 100 100 E 3 6 29.94 1014 1 2 0.03 0.76
4:53 am 04:53 Cloudy with Light Rain 55 12.8 55 12.8 100 100 ESE 3 6 29.93 1013 1 2 0.03 0.76
5:12 am 05:12 Cloudy with Light Rain 56 13.3 56 13.3 100 100 N N/A 29.94 1014 1 2 0.02 0.51
5:28 am 05:28 Cloudy with Light Rain 56 13.3 56 13.3 100 100 N N/A 29.94 1014 2 3 0.02 0.51
5:40 am 05:40 Cloudy with Mist and Fog 56 13.3 56 13.3 100 100 N N/A 29.94 1014 2 2 0.02 0.51
5:50 am 05:50 Cloudy with Mist and Fog 55 13 55 13 100 100 N N/A 29.94 1014 2 3 0.02 0.51
5:59 am 05:59 Cloudy with Mist and Fog 56 13.3 56 13.3 100 100 N N/A 29.94 1014 2 3 N/A
6:06 am 06:06 Cloudy with Mist and Fog 56 13.3 56 13.3 100 100 N N/A 29.94 1014 2 3 N/A
6:35 am 06:35 Cloudy with Light Rain 56 13.3 56 13.3 100 100 N N/A 29.94 1014 3 4 0.01 0.25
6:44 am 06:44 Cloudy with Mist and Fog 56 13.3 55 12.8 97 97 ESE 5 7 29.94 1014 2 3 0.01 0.25
6:53 am 06:53 Cloudy with Mist and Fog 56 13.3 56 13.3 100 100 N N/A 29.93 1014 3 4 0.01 0.25
7:05 am 07:05 Cloudy with Mist and Fog 56 13.3 56 13.3 100 100 N N/A 29.94 1014 3 5 N/A
7:27 am 07:27 Cloudy with Mist and Fog 56 13.3 56 13.3 100 100 N N/A 29.94 1014 3 4 N/A
7:53 am 07:53 Cloudy with Mist and Fog 56 13.3 56 13.3 100 100 N N/A 29.94 1014 2 2 N/A
8:21 am 08:21 Cloudy with Mist and Fog 56 13.3 56 13.3 100 100 N N/A 29.94 1014 2 3 N/A
8:31 am 08:31 Cloudy with Mist and Fog 57 13.9 57 13.9 100 100 N N/A 29.94 1014 2 3 N/A
8:53 am 08:53 Cloudy with Light Rain 57 13.9 56 13.3 96 96 ESE 3 6 29.94 1014 2 3 N/A
9:33 am 09:33 Cloudy with Mist and Fog 57 13.9 57 13.9 100 100 N N/A 29.94 1014 3 4 N/A
9:41 am 09:41 Cloudy with Mist and Fog 57 13.9 57 13.9 100 100 N N/A 29.94 1014 3 4 N/A
9:53 am 09:53 Cloudy with Mist and Fog 57 13.9 57 13.9 100 100 N N/A 29.93 1014 3 4 N/A
10:05 am 10:05 Cloudy with Mist and Fog 58 14.4 57 13.9 97 97 N N/A 29.94 1014 3 5 N/A
10:53 am 10:53 Cloudy with Mist and Fog 59 15 57 13.9 93 93 S 6 9 29.91 1013 5 8 N/A
11:53 am 11:53 Cloudy with Mist and Fog 60 15.6 58 14.4 93 93 S 5 7 29.90 1013 5 8 N/A
12:06 pm 12:06 Cloudy with Mist and Fog 60 15.6 58 14.4 93 93 SSW 3 6 29.91 1013 6 10 N/A
12:53 pm 12:53 Cloudy with Mist and Fog 61 16.1 58 14.4 90 90 SSW 3 6 29.88 1012 6 10 N/A
1:53 pm 13:53 Cloudy 65 18.3 59 15 81 81 SSW 7 11 29.85 1011 8 13 N/A
2:10 pm 14:10 Cloudy 65 18.3 58 14.4 78 78 VRB 6 9 29.83 1010 9 14 N/A
2:53 pm 14:53 Cloudy 65 18.3 58 14.4 78 78 SSW 7 11 29.82 1010 8 13 N/A
3:53 pm 15:53 Cloudy 65 18.3 57 13.9 76 76 S 7 11 29.81 1009 9 14 N/A
4:53 pm 16:53 Cloudy 64 17.8 58 14.4 81 81 SSE 5 7 29.80 1009 10 16 N/A
5:24 pm 17:24 Cloudy 64 17.8 58 14.4 81 81 N N/A 29.80 1009 10 16 N/A
5:53 pm 17:53 Cloudy 64 17.8 58 14.4 81 81 N N/A 29.80 1009 10 16 N/A
6:53 pm 18:53 Cloudy 62 16.7 58 14.4 86 86 N N/A 29.81 1009 10 16 N/A
7:53 pm 19:53 Cloudy 60 15.6 58 14.4 93 93 N N/A 29.82 1010 10 16 N/A
8:53 pm 20:53 Partly Cloudy 58 14.4 56 13.3 93 93 E 5 7 29.81 1010 9 14 N/A
9:53 pm 21:53 Clear with Mist and Fog 53 11.7 53 11.7 100 100 E 3 6 29.82 1010 4 6 N/A
10:53 pm 22:53 Clear with Mist and Fog 54 12.2 54 12.2 100 100 ESE 3 6 29.80 1009 6 10 N/A
11:53 pm 23:53 Clear 56 13.3 55 12.8 97 97 SSE 3 6 29.79 1009 10 16 N/A

Powered by AerisWeather